Flag for Russia Weather past 2 weeks in Kaliningrad, Russia

Now
32 °F

Broken clouds.


Feels Like: 25 °F
Forecast: 16 / 27 °F
Wind: 8 mph from Northeast

Location: Kaliningrad/Khrabrovo Airport

Current Time: Dec 25, 2014 at 5:03:54 PM

Latest Report: Dec 25, 2014 at 4:30 PM


Visibility: N/A

Pressure: 29.92 "Hg

Humidity: 64%

Dew point: 21 °F

Location of KaliningradLocation

Historic Weather in Kaliningrad — Graph

°F

Kaliningrad temperature yesterday

Maximum temperature yesterday: 46 °F (at 5:00 PM)
Minimum temperature yesterday: 37 °F (at 9:00 AM)
Average temperature yesterday: 41 °F

Past Weeks' High & Low Weather Summary

 TemperatureHumidityPressure
High50 °F (Dec 19, 6:00 AM)100% (Dec 15, 1:00 AM)30.04 "Hg (Dec 15, 1:00 AM)
Low30 °F (Dec 14, 7:00 PM)60% (Dec 10, 6:30 PM)29.24 "Hg (Dec 13, 1:30 AM)
Average39 °F82%29.67 "Hg
* Reported Dec 10 4:00 PM — Dec 25 4:00 PM, Kaliningrad, Weather by CustomWeather, © 2014

Note: Actual official high and low records may vary slightly from our data, if they occured in-between our weather recording intervals... More about our weather records

Advertising

Kaliningrad weather history for previous 24 hours

 ConditionsComfort  
Time TempWeatherWind HumidityBarometerVisibility
4:00 PM
Dec 25
32 °FBroken clouds.8 mph69%29.89 "HgN/A
3:00 PM34 °FSnow flurries. Broken clouds.6 mph81%29.86 "Hg3 mi
2:00 PM34 °FBroken clouds.8 mph75%29.83 "HgN/A
1:00 PM36 °FBroken clouds.6 mph75%29.83 "HgN/A
12:30 PM37 °FBroken clouds.8 mph65%29.83 "HgN/A
12:00 PM37 °FBroken clouds.8 mph65%29.80 "HgN/A
11:00 AM36 °FBroken clouds.8 mph70%29.80 "HgN/A
10:00 AM36 °FPartly cloudy.6 mph75%29.77 "HgN/A
9:00 AM36 °FSnow flurries. Partly cloudy.10 mph75%29.74 "Hg2 mi
8:00 AM36 °FPartly cloudy.6 mph60%29.71 "HgN/A
7:00 AM36 °FMostly cloudy.8 mph65%29.71 "HgN/A
6:00 AM37 °FOvercast.10 mph65%29.68 "HgN/A
5:00 AM37 °FMostly cloudy.10 mph75%29.65 "HgN/A
4:00 AM37 °FSprinkles. Mostly cloudy.10 mph75%29.65 "Hg3 mi
3:00 AM37 °FMostly cloudy.10 mph81%29.62 "HgN/A
1:00 AM39 °FMostly cloudy.13 mph87%29.56 "HgN/A
12:00 AM39 °FPassing clouds.10 mph87%29.53 "HgN/A
11:00 PM
Dec 24
39 °FMostly cloudy.15 mph81%29.53 "HgN/A
10:00 PM41 °FMostly cloudy.13 mph87%29.50 "HgN/A
9:30 PM39 °FSprinkles. Mostly cloudy.13 mph93%29.47 "Hg4 mi
9:00 PM43 °FMostly cloudy.17 mph81%29.42 "HgN/A
8:00 PM46 °FSprinkles. Overcast.24 mph82%29.39 "Hg4 mi
7:00 PM46 °FSprinkles. Fog.22 mph87%29.39 "Hg2 mi
6:00 PM46 °FSprinkles. Fog.17 mph87%29.39 "Hg3 mi
5:00 PM46 °FLight rain. Fog.15 mph87%29.42 "Hg3 mi
Weather by CustomWeather, © 2014

See weather overviewHow to use our weather pages